Date String (YYYY-MM-DD hh:mm:ss) UTC,Instrument flags,absolute air pressure of the measurement (hPa),sample flow rate (lpm),inlet stack bypass flow (lpm),air temperature of the measurement (°C),ambient temperature measured by the external sensor (°C),aerosol sample conditioner tube jacket temperature (°C),OPC LED temperature (°C),internal box temperature (°C),relative humidity of the measurement (%),span deviation,mass concentration of particles derived from Lorenz-Mie calculation of OPC scattering (μg/m³),mass concentration of particles derived from Lorenz-Mie calculation of OPC scattering (μg/m³),mass concentration of particles derived from Lorenz-Mie calculation of OPC scattering (μg/m³)
DateTimeUTC,F1_M11,P_M11,Q1_M11,Q2_M11,T1_M11,T2_M11,T3_M11,T4_M11,T5_M11,U1_M11,ZSPAN_M11,X0_M11,X2_M11,X1_M11
2023-06-22 00:00:00,SystemResetWarning,0829.4,5.01,000.00,032.0,024.9,000.0,039.8,031.8,32.9,0002.8,0021.03,0010.15,0008.96
2023-06-22 00:01:00,SystemResetWarning,0829.5,5.01,000.00,031.8,025.1,000.0,039.8,031.5,31.4,0002.7,0020.12,0010.19,0009.00
2023-06-22 00:02:00,SystemResetWarning,0829.4,4.99,000.00,031.6,025.5,000.0,039.8,031.4,31.4,0002.6,0019.05,0010.21,0009.02
2023-06-22 00:03:00,SystemResetWarning,0829.4,5.00,000.00,031.5,026.0,000.0,039.8,031.4,32.4,0002.5,0018.58,0010.24,0009.07
2023-06-22 00:04:00,SystemResetWarning,0829.3,5.00,000.00,031.5,026.5,000.0,039.7,031.5,33.0,0002.4,0018.24,0010.25,0009.13
2023-06-22 00:05:00,SystemResetWarning,0829.3,5.00,000.00,031.4,026.9,000.0,039.7,031.6,34.2,0002.8,0018.48,0010.25,0009.18
2023-06-22 00:06:00,SystemResetWarning,0829.4,4.99,000.00,031.4,027.3,000.0,039.7,031.6,33.4,0002.9,0019.40,0010.23,0009.20
2023-06-22 00:07:00,SystemResetWarning,0829.3,5.00,000.00,031.3,027.7,000.0,039.7,031.7,33.3,0002.6,0020.44,0010.23,0009.23
2023-06-22 00:08:00,SystemResetWarning,0829.3,5.00,000.00,031.3,027.9,000.0,039.7,031.8,34.3,0002.5,0021.10,0010.28,0009.27
2023-06-22 00:09:00,SystemResetWarning,0829.3,5.00,000.00,031.3,028.1,000.0,039.6,031.8,34.5,0002.7,0021.15,0010.33,0009.32
2023-06-22 00:10:00,SystemResetWarning,0829.3,4.98,000.00,031.3,026.8,000.0,039.6,031.8,34.1,0002.5,0020.94,0010.41,0009.38
2023-06-22 00:11:00,SystemResetWarning,0829.2,5.00,000.00,031.3,025.2,000.0,039.5,031.7,33.6,0002.5,0020.72,0010.54,0009.43
2023-06-22 00:12:00,SystemResetWarning,0829.2,5.01,000.00,031.3,024.9,000.0,039.4,031.6,33.5,0002.2,0021.02,0010.58,0009.44
2023-06-22 00:13:00,SystemResetWarning,0829.1,5.00,000.00,031.1,025.2,000.0,039.4,031.3,35.4,0002.3,0021.17,0010.65,0009.46
2023-06-22 00:14:00,SystemResetWarning,0829.1,5.02,000.00,031.1,025.7,000.0,039.4,031.3,35.0,0002.1,0021.36,0010.69,0009.47
2023-06-22 00:15:00,SystemResetWarning,0829.1,4.98,000.00,031.2,026.2,000.0,039.3,031.5,35.8,0002.3,0021.85,0010.74,0009.47
2023-06-22 00:16:00,SystemResetWarning,0829.3,5.01,000.00,031.4,026.6,000.0,039.3,031.7,34.6,0001.9,0020.87,0010.75,0009.44
2023-06-22 00:17:00,SystemResetWarning,0829.4,4.99,000.00,031.6,027.1,000.0,039.3,031.8,33.6,0002.1,0019.60,0010.76,0009.43
2023-06-22 00:18:00,SystemResetWarning,0829.3,5.00,000.00,031.7,027.4,000.0,039.4,031.8,33.1,0002.4,0018.83,0010.77,0009.42
2023-06-22 00:19:00,SystemResetWarning,0829.4,5.00,000.00,031.8,027.7,000.0,039.4,031.8,32.9,0002.4,0018.88,0010.79,0009.39
2023-06-22 00:20:00,SystemResetWarning,0829.5,4.99,000.00,031.9,028.0,000.0,039.5,031.9,32.6,0002.5,0019.26,0010.79,0009.34
2023-06-22 00:21:00,SystemResetWarning,0829.6,4.99,000.00,031.9,027.9,000.0,039.6,032.0,32.0,0002.8,0019.62,0010.75,0009.29
2023-06-22 00:22:00,SystemResetWarning,0829.6,5.00,000.00,032.0,026.3,000.0,039.5,031.9,33.4,0003.0,0018.58,0010.58,0009.24
2023-06-22 00:23:00,SystemResetWarning,0829.6,5.00,000.00,032.0,025.1,000.0,039.5,031.9,33.3,0003.2,0018.21,0010.51,0009.20
2023-06-22 00:24:00,SystemResetWarning,0829.6,5.01,000.00,031.9,025.0,000.0,039.5,031.7,32.9,0003.4,0018.41,0010.48,0009.17
2023-06-22 00:25:00,SystemResetWarning,0829.5,5.00,000.00,031.7,025.3,000.0,039.6,031.3,33.1,0003.5,0018.23,0010.41,0009.13
2023-06-22 00:26:00,SystemResetWarning,0829.5,5.00,000.00,031.5,025.8,000.0,039.6,031.3,33.1,0003.2,0017.61,0010.29,0009.08
2023-06-22 00:27:00,SystemResetWarning,0829.4,4.99,000.00,031.5,026.3,000.0,039.6,031.4,33.7,0003.3,0018.01,0010.30,0009.05
2023-06-22 00:28:00,SystemResetWarning,0829.5,4.99,000.00,031.4,026.8,000.0,039.6,031.5,33.0,0003.0,0019.53,0010.32,0009.01
2023-06-22 00:29:00,SystemResetWarning,0829.5,4.99,000.00,031.4,027.2,000.0,039.6,031.6,33.1,0003.0,0020.31,0010.32,0008.99
2023-06-22 00:30:00,SystemResetWarning,0829.6,5.00,000.00,031.4,027.5,000.0,039.6,031.7,33.1,0003.1,0020.65,0010.28,0008.96
2023-06-22 00:31:00,SystemResetWarning,0829.7,5.00,000.00,031.4,027.8,000.0,039.6,031.7,33.1,0003.0,0020.67,0010.26,0008.95
2023-06-22 00:32:00,SystemResetWarning,0829.7,5.01,000.00,031.4,028.1,000.0,039.6,031.8,33.5,0003.1,0020.19,0010.26,0008.93
2023-06-22 00:33:00,SystemResetWarning,0829.6,4.98,000.00,031.4,027.6,000.0,039.6,031.9,36.1,0003.3,0020.84,0010.30,0008.91
2023-06-22 00:34:00,SystemResetWarning,0829.7,5.02,000.00,031.6,025.8,000.0,039.5,031.9,36.0,0003.4,0021.01,0010.30,0008.88
2023-06-22 00:35:00,SystemResetWarning,0829.7,5.00,000.00,031.9,024.9,000.0,039.4,032.0,35.7,0003.4,0021.21,0010.28,0008.85
2023-06-22 00:36:00,SystemResetWarning,0829.7,5.00,000.00,032.2,025.0,000.0,039.4,031.9,35.4,0003.3,0024.90,0010.42,0008.72
2023-06-22 00:37:00,SystemResetWarning,0829.7,5.01,000.00,032.4,025.4,000.0,039.5,031.7,34.9,0003.5,0028.25,0010.71,0008.62
2023-06-22 00:38:00,SystemResetWarning,0829.8,4.97,000.00,032.6,025.9,000.0,039.5,031.8,34.7,0003.8,0031.60,0010.91,0008.49
2023-06-22 00:39:00,SystemResetWarning,0829.8,5.02,000.00,032.7,026.4,000.0,039.6,031.9,34.2,0003.9,0034.29,0011.00,0008.37
2023-06-22 00:40:00,SystemResetWarning,0829.9,4.99,000.00,032.8,026.9,000.0,039.7,031.9,34.1,0003.8,0037.26,0011.20,0008.23
2023-06-22 00:41:00,SystemResetWarning,0830.0,4.99,000.00,032.8,027.3,000.0,039.9,031.9,33.8,0004.0,0039.07,0011.41,0008.11
2023-06-22 00:42:00,SystemResetWarning,0830.0,5.00,000.00,032.8,027.6,000.0,040.0,032.0,34.0,0004.0,0041.44,0011.62,0007.95
2023-06-22 00:43:00,SystemResetWarning,0830.0,4.99,000.00,032.8,027.9,000.0,040.1,032.0,34.0,0003.5,0043.80,0011.72,0007.80
2023-06-22 00:44:00,SystemResetWarning,0830.0,5.01,000.00,032.8,028.2,000.0,040.2,032.0,33.8,0002.7,0046.70,0011.97,0007.66
2023-06-22 00:45:00,SystemResetWarning,0830.0,5.00,000.00,032.8,028.0,000.0,040.2,032.1,33.6,0002.4,0048.64,0012.20,0007.53
2023-06-22 00:46:00,SystemResetWarning,0830.0,4.99,000.00,032.9,026.2,000.0,040.2,032.2,33.5,0002.5,0051.95,0012.47,0007.41
2023-06-22 00:47:00,SystemResetWarning,0830.1,5.00,000.00,032.8,024.9,000.0,040.2,032.1,33.8,0002.6,0052.00,0012.61,0007.38
2023-06-22 00:48:00,SystemResetWarning,0830.1,5.02,000.00,032.8,024.8,000.0,040.2,031.9,33.4,0002.4,0054.58,0012.64,0007.36
2023-06-22 00:49:00,SystemResetWarning,0830.1,5.00,000.00,032.5,025.1,000.0,040.2,031.5,33.8,0001.9,0055.56,0012.71,0007.37
2023-06-22 00:50:00,SystemResetWarning,0830.2,4.99,000.00,032.3,025.6,000.0,040.2,031.5,34.3,0002.1,0055.07,0012.92,0007.40
2023-06-22 00:51:00,SystemResetWarning,0830.2,5.01,000.00,032.2,026.2,000.0,040.2,031.6,34.6,0002.3,0054.28,0013.03,0007.46
2023-06-22 00:52:00,SystemResetWarning,0830.3,4.99,000.00,032.2,026.6,000.0,040.2,031.7,34.9,0002.3,0054.80,0013.10,0007.51
2023-06-22 00:53:00,SystemResetWarning,0830.3,4.99,000.00,032.1,027.1,000.0,040.2,031.8,34.9,0002.3,0054.76,0013.18,0007.57
2023-06-22 00:54:00,SystemResetWarning,0830.3,5.02,000.00,032.1,027.4,000.0,040.2,031.8,35.1,0002.6,0054.94,0013.30,0007.65
2023-06-22 00:55:00,SystemResetWarning,0830.3,5.01,000.00,032.2,027.7,000.0,040.2,032.0,35.0,0003.1,0054.07,0013.39,0007.71
2023-06-22 00:56:00,SystemResetWarning,0830.4,4.97,000.00,032.4,028.0,000.0,040.1,032.1,34.5,0003.2,0054.84,0013.40,0007.74
2023-06-22 00:57:00,SystemResetWarning,0830.4,5.01,000.00,032.6,028.2,000.0,040.2,032.1,34.5,0003.4,0053.84,0013.42,0007.77
2023-06-22 00:58:00,SystemResetWarning,0830.4,5.01,000.00,032.6,028.3,000.0,040.2,032.2,34.5,0003.7,0053.63,0013.44,0007.79
2023-06-22 00:59:00,SystemResetWarning,0830.3,4.98,000.00,032.7,026.9,000.0,040.2,032.2,34.4,0003.8,0052.20,0013.35,0007.80
